Location: Emory University Observatory
(33.7903°N, 84.3267°W)
Time: 14:39:59
(UTC-05:00)

Vanguard 2 Rocket - All Passes

Search period start: 12 December 2017 00:00
Search period end: 22 December 2017 00:00
Orbit: 555 x 3326 km, 32.9° (Epoch: 11 December)

Date Brightness Start Highest point End Pass type
(mag) Time Alt. Az. Time Alt. Az. Time Alt. Az.
12 Dec - 02:13:18 10° WNW 02:32:41 54° SSW 02:48:08 10° SE visible
12 Dec - 04:35:47 10° W 04:47:32 20° SW 04:56:58 10° S visible
12 Dec - 18:27:31 10° SSW 18:37:22 45° SE 18:53:16 10° ENE visible
12 Dec - 20:39:37 10° WSW 20:53:13 80° SSE 21:13:31 10° E visible
12 Dec - 22:54:32 10° W 23:12:05 86° S 23:32:26 10° E visible
13 Dec - 01:11:24 10° WNW 01:31:02 65° SSW 01:48:28 10° SE visible
13 Dec - 03:31:20 10° W 03:47:16 31° SW 03:59:52 10° S visible
13 Dec - 17:29:39 10° SSW 17:37:39 31° SE 17:50:00 10° E daylight
13 Dec - 19:40:15 10° WSW 19:51:56 71° SSE 20:10:53 10° E visible
13 Dec - 21:54:09 10° W 22:09:46 88° S 22:30:35 10° E visible
14 Dec - 00:10:05 10° W 00:28:59 75° SSW 00:48:05 10° ESE visible
14 Dec - 02:28:18 10° W 02:46:26 43° SW 03:01:28 10° SSE visible
14 Dec - 04:55:34 10° WSW 05:00:53 12° SW 05:05:45 10° SW visible
14 Dec - 16:32:53 10° S 16:38:27 18° SE 16:45:58 10° E daylight
14 Dec - 18:41:23 10° SW 18:51:18 58° SSE 19:08:05 10° ENE visible
14 Dec - 20:54:13 10° W 21:07:49 86° S 21:28:13 10° E visible
14 Dec - 23:09:15 10° W 23:26:42 81° SSW 23:46:59 10° ESE visible
15 Dec - 01:26:11 10° WNW 01:45:04 54° SSW 02:02:11 10° SE visible
15 Dec - 03:47:54 10° W 04:00:40 21° SW 04:11:31 10° S visible
15 Dec - 17:43:02 10° SSW 17:51:19 43° SE 18:05:11 10° E visible
15 Dec - 19:54:43 10° WSW 20:06:22 80° SSE 20:25:33 10° E visible
15 Dec - 22:08:52 10° W 22:24:28 86° S 22:45:15 10° ESE visible
16 Dec - 00:24:47 10° WNW 00:43:15 64° SSW 01:02:07 10° SE visible
16 Dec - 02:43:49 10° W 03:00:02 32° SW 03:14:04 10° SSE visible
16 Dec - 16:45:21 10° SSW 16:51:57 28° SE 17:02:05 10° E daylight
16 Dec - 18:55:38 10° WSW 19:05:32 70° SSE 19:22:46 10° E visible
16 Dec - 21:08:55 10° W 21:22:31 88° S 21:42:56 10° E visible
16 Dec - 23:23:56 10° W 23:41:11 73° SSW 00:01:17 10° ESE visible
17 Dec - 01:41:14 10° W 01:58:53 42° SW 02:15:21 10° SSE visible
17 Dec - 04:07:24 10° WSW 04:14:09 13° SW 04:20:25 10° SSW visible
17 Dec - 15:48:56 10° SSE 15:53:01 15° SE 15:58:14 10° E daylight
17 Dec - 17:56:58 10° SW 18:05:18 56° SSE 18:20:00 10° ENE visible
17 Dec - 20:09:20 10° W 20:20:59 86° S 20:40:15 10° E visible
17 Dec - 22:23:34 10° W 22:39:06 80° SSW 22:59:45 10° ESE visible
18 Dec - 00:39:36 10° W 00:57:20 53° SSW 01:15:41 10° SE visible
18 Dec - 03:00:27 10° W 03:13:34 22° SW 03:25:31 10° S visible
18 Dec - 16:58:47 10° SSW 17:05:42 40° SE 17:17:19 10° E daylight
18 Dec - 19:10:08 10° WSW 19:20:00 80° SSE 19:37:26 10° E visible
18 Dec - 21:23:38 10° W 21:37:13 85° S 21:57:35 10° ESE visible
18 Dec - 23:38:39 10° W 23:55:30 63° SSW 00:15:13 10° SE visible
19 Dec - 01:56:50 10° W 02:12:37 31° SW 02:27:45 10° SSE visible
19 Dec - 16:01:15 10° S 16:06:36 25° SE 16:14:34 10° E daylight
19 Dec - 18:11:16 10° WSW 18:19:35 70° SSE 18:34:41 10° E visible
19 Dec - 20:24:02 10° W 20:35:42 87° S 20:54:58 10° E visible
19 Dec - 22:38:16 10° W 22:53:36 72° SSW 23:13:59 10° ESE visible
20 Dec - 00:54:42 10° W 01:11:17 41° SW 01:28:42 10° SSE visible
20 Dec - 03:20:01 10° WSW 03:27:14 13° SW 03:34:10 10° SSW visible
20 Dec - 15:05:22 10° SSE 15:07:51 12° SE 15:10:47 10° ESE daylight
20 Dec - 17:12:46 10° SW 17:19:44 54° SSE 17:32:10 10° E daylight
20 Dec - 19:24:46 10° W 19:34:39 86° S 19:52:08 10° E visible
20 Dec - 21:38:20 10° W 21:51:51 79° SSW 22:12:03 10° ESE visible
20 Dec - 23:53:31 10° W 00:09:41 51° SSW 00:28:40 10° SE visible
21 Dec - 02:13:34 10° W 02:26:21 21° SW 02:38:56 10° S visible
21 Dec - 16:14:42 10° SSW 16:20:26 37° SE 16:29:51 10° E daylight
21 Dec - 18:25:48 10° WSW 18:34:07 80° SSE 18:49:22 10° E visible
21 Dec - 20:38:45 10° W 20:50:24 84° S 21:09:36 10° ESE visible
21 Dec - 22:53:01 10° W 23:07:58 60° SSW 23:27:49 10° SE visible
